DW8569 Weather Reports


time (UTC)temp
F
wind
direction
speed
knots
gust
knots
rain 1hr
in
rain 24hr
in
rain mn
in
humidity
%
barometer
mb
20190419103010 62 211 0.0 5.2 0.00 0.00 0.00 87 1009.0
20190419101519 62 226 0.0 6.1 0.00 0.00 0.00 87 1009.0
20190419100011 62 205 0.0 6.1 0.00 0.00 0.00 87 1009.0
20190419094537 62 188 0.0 6.1 0.00 0.00 0.00 87 1008.9
20190419093009 62 140 0.9 4.3 0.00 0.00 0.00 87 1008.9
20190419091511 62 224 0.0 4.3 0.00 0.00 0.00 86 1009.0
20190419090002 62 210 0.9 6.1 0.00 0.00 0.00 85 1009.3
20190419084704 62 218 0.0 3.5 0.00 0.00 0.00 85 1009.3
20190419083134 63 177 0.0 4.3 0.00 0.00 0.00 84 1009.2
20190419081650 63 224 2.6 6.1 0.00 0.00 0.00 84 1009.2
20190419081606 63 204 1.7 6.1 0.00 0.00 0.00 84 1009.2
20190419080218 63 173 1.7 7.0 0.00 0.00 0.00 84 1009.1
20190419074806 63 217 1.7 5.2 0.00 0.00 0.00 83 1009.2
20190419073133 63 215 0.9 5.2 0.00 0.00 0.00 83 1009.2
20190419071646 63 218 0.9 5.2 0.00 0.00 0.00 82 1009.3
20190419070153 63 209 0.0 7.8 0.00 0.00 0.00 82 1009.3
20190419064629 63 225 1.7 8.7 0.00 0.00 0.00 82 1009.3
20190419063142 63 215 1.7 7.0 0.00 0.00 0.00 82 1009.4
20190419061620 63 241 0.0 5.2 0.00 0.00 0.00 82 1009.6
20190419060133 63 211 1.7 7.8 0.00 0.00 0.00 83 1009.7
20190419054806 63 232 0.9 5.2 0.00 0.00 0.00 83 1009.9
20190419053155 63 217 0.9 7.8 0.00 0.00 0.00 83 1010.1
20190419051644 63 198 0.0 6.1 0.00 0.00 0.00 83 1010.3
20190419050151 63 238 0.9 7.8 0.00 0.00 0.00 83 1010.4
20190419044701 63 202 0.0 7.8 0.00 0.00 0.00 83 1010.4
20190419043106 63 148 0.9 6.1 0.00 0.00 0.00 83 1010.5
20190419041646 63 182 1.7 7.8 0.00 0.00 0.00 83 1010.7
20190419040109 63 225 0.0 5.2 0.00 0.00 0.00 84 1010.7
20190419034646 62 219 0.0 0.9 0.00 0.00 0.00 84 1010.7
20190419033056 63 219 0.0 4.3 0.00 0.00 0.00 83 1010.8
20190419031611 63 221 0.0 5.2 0.00 0.00 0.00 83 1011.1
20190419030134 63 194 0.0 4.3 0.00 0.00 0.00 82 1011.2
20190419024626 63 174 0.0 7.0 0.00 0.00 0.00 81 1011.1
20190419023100 63 217 0.0 4.3 0.00 0.00 0.00 81 1011.3
20190419021602 62 219 0.9 5.2 0.00 0.00 0.00 81 1011.4
20190419020151 61 138 0.0 2.6 0.00 0.00 0.00 80 1011.2
20190419014605 60 173 0.0 1.7 0.00 0.00 0.00 80 1011.2
20190419013050 60 190 0.0 0.9 0.00 0.00 0.00 80 1010.9
20190419011612 60 191 0.0 1.7 0.00 0.00 0.00 80 1011.1
20190419010056 60 151 0.0 2.6 0.00 0.00 0.00 80 1011.0
20190419004550 60 123 0.0 1.7 0.00 0.00 0.00 80 1011.0
20190419003047 60 179 0.0 2.6 0.00 0.00 0.00 80 1010.8
20190419001539 60 169 0.0 2.6 0.00 0.00 0.00 81 1010.6
20190419000041 60 177 0.9 3.5 0.00 0.00 0.00 80 1010.6
20190418234555 60 213 0.0 5.2 0.00 0.00 0.00 79 1010.7
20190418233102 60 150 0.9 5.2 0.00 0.00 0.00 77 1010.8
20190418231553 61 155 0.9 4.3 0.00 0.00 0.00 75 1010.8
20190418230035 62 170 0.9 4.3 0.00 0.00 0.00 73 1010.9
20190418224541 63 161 0.0 3.5 0.00 0.00 0.00 73 1010.8
20190418223045 64 146 0.0 3.5 0.00 0.00 0.00 71 1011.0
20190418221628 65 175 0.9 4.3 0.00 0.00 0.00 70 1011.1
20190418220030 64 185 0.9 3.5 0.00 0.00 0.00 72 1011.1
20190418214552 64 130 0.9 5.2 0.00 0.00 0.00 73 1011.4
20190418213038 63 141 0.9 4.3 0.00 0.00 0.00 75 1011.7
20190418211525 62 137 1.7 6.1 0.00 0.00 0.00 77 1011.8
20190418210032 61 137 1.7 6.1 0.00 0.00 0.00 79 1011.7
20190418204518 60 138 0.0 7.8 0.00 0.00 0.00 80 1011.9
20190418203006 60 163 2.6 7.8 0.00 0.00 0.00 81 1012.1
20190418201700 59 109 3.5 10.4 0.00 0.00 0.00 83 1012.3
20190418200144 59 149 2.6 10.4 0.00 0.00 0.00 84 1012.6
20190418194704 58 144 1.7 11.3 0.00 0.00 0.00 86 1012.9
20190418193213 57 146 4.3 11.3 0.00 0.00 0.00 90 1013.1
20190418191616 55 135 2.6 7.0 0.00 0.00 0.00 92 1013.4
20190418190108 54 118 2.6 8.7 0.00 0.00 0.00 91 1013.7
20190418184631 54 138 3.5 7.0 0.00 0.00 0.00 90 1014.2
20190418183115 54 122 3.5 9.6 0.00 0.00 0.00 89 1014.5
20190418181625 55 86 2.6 8.7 0.00 0.00 0.00 88 1014.9
20190418180100 56 153 3.5 10.4 0.00 0.00 0.00 86 1015.2
20190418174620 57 146 2.6 12.2 0.00 0.00 0.00 85 1015.4
20190418173121 57 132 2.6 7.8 0.00 0.00 0.00 85 1015.6
20190418171542 56 168 4.3 12.2 0.00 0.00 0.00 86 1015.9
20190418170106 55 155 3.5 9.6 0.00 0.00 0.00 86 1016.4
20190418164541 54 140 1.7 6.1 0.00 0.00 0.00 85 1016.8
20190418163048 54 141 1.7 6.1 0.00 0.00 0.00 86 1017.3
20190418161536 54 140 1.7 7.8 0.00 0.00 0.00 86 1017.4
20190418160020 54 128 3.5 7.0 0.00 0.00 0.00 86 1017.9
20190418154549 54 130 0.9 6.1 0.00 0.00 0.00 85 1017.8
20190418153024 53 130 1.7 9.6 0.00 0.00 0.00 84 1017.6
20190418151516 53 138 2.6 9.6 0.00 0.00 0.00 83 1017.8
20190418150010 53 165 1.7 5.2 0.00 0.00 0.00 82 1017.8
20190418144516 53 121 1.7 6.1 0.00 0.00 0.00 81 1018.1
20190418143021 53 150 1.7 9.6 0.00 0.00 0.00 80 1018.0
20190418141512 52 113 2.6 7.8 0.00 0.00 0.00 80 1018.4
20190418140001 52 156 1.7 8.7 0.00 0.00 0.00 80 1018.7
20190418134650 51 170 0.9 7.8 0.00 0.00 0.00 80 1019.0
20190418133149 51 167 2.6 7.0 0.00 0.00 0.00 80 1019.3
20190418131705 51 144 1.7 7.8 0.00 0.00 0.00 80 1019.6
20190418130217 50 163 0.9 7.0 0.00 0.00 0.00 80 1019.9
20190418124654 50 146 0.9 7.8 0.00 0.00 0.00 79 1020.0
20190418123143 50 126 1.7 5.2 0.00 0.00 0.00 79 1020.1
20190418121636 50 92 2.6 6.1 0.00 0.00 0.00 79 1020.2
20190418120135 50 130 1.7 7.0 0.00 0.00 0.00 78 1020.2
20190418114613 50 136 3.5 8.7 0.00 0.00 0.00 78 1019.9
20190418113201 50 134 1.7 7.8 0.00 0.00 0.00 79 1020.2
20190418111552 49 132 0.9 7.8 0.00 0.00 0.00 80 1020.1
20190418110135 49 133 1.7 6.1 0.00 0.00 0.00 81 1020.4
20190418104624 49 171 0.0 6.1 0.00 0.00 0.00 81 1020.5